Location: Castelbiague
(43.0361°N, 0.9246°E)
Time: 19:52:48
(UTC+00:00)

Meteor 1-4 Rocket - Pass Details

Date: 26 October 2021
Orbit: 447 x 496 km, 81.2° (Epoch: 04 December)

Event Time Altitude Azimuth Distance (km) Brightness Sun altitude
Rises 05:22:38 0° 344° (NNW) 2,473 5.9 -11.7°
Reaches altitude 10° 05:24:44 10° 339° (NNW) 1,601 4.9 -11.3°
Maximum altitude 05:28:07 49° 264° (W) 605 2.6 -10.7°
Drops below altitude 10° 05:31:31 10° 189° (S) 1,612 5.2 -10.1°
Sets 05:33:39 0° 183° (S) 2,491 6.2 -9.7°
